Weather Roundup
Issued by NWS

Home | Current Version | Previous Version | Text Only | Print | Product List | Glossary On
Versions: 1 2 3 4 5 6 7 8 9 10 11 12 13 14 15 16 17 18 19 20 21 22 23 24 25 26 27 28 29 30 31 32 33 34 35 36 37 38 39 40 41 42 43 44 45 46 47 48 49 50
000
NZUS93 KARX 011310
HRRWXR

CURRENT HOURLY OBSERVATIONS ACROSS
MUCH OF THE UPPER MISSISSIPPI VALLEY
NATIONAL WEATHER SERVICE LA CROSSE WI
800 AM CDT SAT OCT 01 2016


...SOUTHEAST MINNESOTA...


CITY           SKY/WX    TMP DP  RH WIND       PRES   REMARKS
ROCHESTER      CLOUDY    57  54  89 NE8       30.16R
ROCHESTER/MAYO   N/A     57  54  88 N3        30.16R
WINONA         CLOUDY    59  52  77 CALM      30.15R HAZE
AUSTIN         CLOUDY    57  54  88 NE3       30.15R
ALBERT LEA     PTCLDY    57  55  94 N3        30.15S
DODGE CENTER   CLOUDY    55  54  94 NE3       30.16R
PRESTON        CLOUDY    56  53  92 N3        30.15S
OWATONNA       MOCLDY    57  54  88 NE3       30.16S
FARIBAULT      PTCLDY    55  54  94 N3        30.17S
$$

...ELSEWHERE IN MINNESOTA...


CITY           SKY/WX    TMP DP  RH WIND       PRES   REMARKS
MINNEAPOLIS    CLEAR     53  50  89 NE6       30.18S
INTNL FALLS    CLOUDY    43  43 100 SE5       30.24S
DULUTH         PTCLDY    51  49  92 E3        30.23S
RED WING       CLEAR     55  52  88 CALM      30.16S
REDWOOD FALLS  CLOUDY    51  49  92 NE3       30.18R FOG
MANKATO        MOCLDY    57  54  89 NE10      30.17R
WORTHINGTON    CLOUDY    56  54  93 NE7       30.18R
FAIRMONT       CLOUDY    57  54  89 NW3       30.16S
$$

...SOUTHWEST WISCONSIN...


CITY           SKY/WX    TMP DP  RH WIND       PRES   REMARKS
LA CROSSE      CLOUDY    61  56  83 N3        30.13R
PRAIRIE DU CHI CLOUDY    60  56  88 NW5       30.09S
BOSCOBEL       CLOUDY    61  58  90 N5        30.10S
LONE ROCK      CLOUDY    60  58  92 NE8       30.10R FOG
PLATTEVILLE    CLOUDY    59  59 100 N7        30.08S
FORT MC COY    CLOUDY    57  55  92 N7        30.14S
CAMP DOUGLAS   CLOUDY    57  57 100 NE5       30.13R
MAUSTON-NEW LI CLOUDY    58  57  98 NE5       30.12R FOG
VIROQUA        CLOUDY    56  56 100 N7        30.12S
WIS DELLS      DRIZZLE   57  56  95 NE8       30.10S
$$

...ELSEWHERE IN WISCONSIN...


CITY           SKY/WX    TMP DP  RH WIND       PRES   REMARKS
MILWAUKEE      CLOUDY    60  58  92 NE10      30.06S
MADISON        CLOUDY    59  58  96 NE9       30.08R
GREEN BAY      CLOUDY    60  59  96 N7        30.11F
EAU CLAIRE     MOCLDY    52  51  97 CALM      30.17R
BLACK RVR FLS  CLOUDY    58  53  81 NE6       30.14S
MEDFORD        CLOUDY    53  53 100 NE5       30.18S
WAUSAU         CLOUDY    55  53  93 N3        30.15S
WIS RAPIDS     CLOUDY    58  56  93 NE8       30.15S
MARSHFIELD     CLOUDY    57  52  83 N8        30.15S
RICE LAKE      PTCLDY    52  50  94 CALM      30.21S
$$

...NORTHEAST IOWA...


CITY           SKY/WX    TMP DP  RH WIND       PRES   REMARKS
WATERLOO       CLOUDY    57  56  96 N6        30.11S FOG
DUBUQUE        CLOUDY    58  58 100 N8        30.08S FOG
DECORAH        MOCLDY    57  57 100 VRB7      30.12S
MASON CITY     MOCLDY    58  56  93 CALM      30.15S
CHARLES CITY   CLOUDY    59  59 100 N7        30.14R FOG
OELWEIN        CLOUDY    57  57 100 N6        30.12S FOG
$$

...ELSEWHERE IN IOWA...


CITY           SKY/WX    TMP DP  RH WIND       PRES   REMARKS
DES MOINES     CLOUDY    60  58  92 N3        30.12R
IOWA CITY      CLOUDY    60  58  92 N6        30.10R FOG
FORT DODGE     CLOUDY    57  54  88 N3        30.15S
MARSHALLTOWN   CLOUDY    58  58 100 N7        30.12R FOG
CEDAR RAPIDS   CLOUDY    59  59 100 N7        30.09R FOG
$$

...NORTHERN ILLINOIS...


CITY           SKY/WX    TMP DP  RH WIND       PRES   REMARKS
CHICAGO-OHARE  CLOUDY    60  56  86 N8        30.01S
CHICAGO-MIDWAY PTSUNNY   61  56  83 NW8       30.00F
MOLINE         CLOUDY    61  58  90 NW6       30.05S
ROCKFORD       MOSUNNY   60  57  89 N6        30.07S
PEORIA         CLOUDY    61  61 100 N3        30.04R FOG
$$

NOTE: "FAIR" INDICATES FEW OR NO CLOUDS BELOW 12,000 FEET WITH NO
SIGNIFICANT WEATHER AND/OR OBSTRUCTIONS TO VISIBILITY. WIND
SPEEDS ARE IN MILES-PER-HOUR.




USA.gov is the U.S. government's official web portal to all federal, state and local government web resources and services.